Tracking 27107 objects as of 20-Mar-2023
HD Live streaming from Space Station
objects crossing your sky now

LEMUR 2 DAVEWILSON

Track LEMUR 2 DAVEWILSON now!
10-day predictions
LEMUR 2 DAVEWILSON is classified as:


NORAD ID: 43126
Int'l Code: 2018-004R
Perigee: 323.9 km
Apogee: 329.0 km
Inclination: 97.4 °
Period: 90.9 minutes
Semi major axis: 6697 km
RCS: Unknown
Launch date: January 12, 2018
Source: United States (US)
Launch site: SRIHARIKOTA (SRI)
Your satellite tracking list
Your tracking list is empty




NASA's NSSDC Master Catalog

Two Line Element Set (TLE):
1 43126U 18004R   23079.51381635  .00345941  00000-0  15030-2 0  9999
2 43126  97.3507 170.7113 0003832 284.2754  75.8090 15.83929899289367
Source of the keplerian elements: AFSPC